QPF
0.00 0.00 0.00 0.00 0.00 0.00 0.00 0.00 0.00 0.00 0.00 0.00 0.00 0.00 0.00 0.00 0.00 0.00 0.00 0.00 0.00 0.01 0.01 0.01 0.01 0.01 0.01 0.01 0.02 0.02 0.02 0.05 0.05 0.06 0.08 0.08 0.07 0.12 0.16 0.10 0.05 0.03 0.02 0.03
0.00 0.00 0.00 0.00 0.00 0.00 0.00 0.00 0.00 0.00 0.00 0.00 0.00 0.00 0.00 0.00 0.00 0.00 0.00 0.00 0.00 0.01 0.01 0.00 0.00 0.00 0.00 0.01 0.02 0.02 0.02 0.02 0.03 0.04 0.06 0.09 0.07 0.06 0.06 0.05 0.03 0.02 0.02 0.03
0.00 0.00 0.00 0.00 0.00 0.00 0.00 0.00 0.00 0.00 0.00 0.00 0.00 0.00 0.00 0.00 0.00 0.00 0.00 0.00 0.00 0.00 0.00 0.00 0.00 0.00 0.00 0.01 0.01 0.01 0.01 0.03 0.04 0.03 0.03 0.06 0.08 0.06 0.04 0.03 0.02 0.02 0.02 0.03
0.00 0.00 0.00 0.00 0.00 0.00 0.00 0.00 0.00 0.00 0.00 0.00 0.00 0.00 0.00 0.00 0.00 0.00 0.00 0.00 0.00 0.00 0.00 0.00 0.01 0.01 0.00 0.01 0.01 0.01 0.02 0.03 0.05 0.04 0.03 0.04 0.05 0.04 0.03 0.02 0.02 0.02 0.02 0.03
0.00 0.00 0.00 0.00 0.00 0.00 0.00 0.00 0.00 0.00 0.00 0.00 0.00 0.00 0.00 0.00 0.00 0.00 0.00 0.00 0.00 0.00 0.00 0.00 0.01 0.01 0.01 0.01 0.01 0.01 0.02 0.03 0.06 0.06 0.04 0.05 0.04 0.03 0.03 0.03 0.02 0.02 0.02 0.02
0.00 0.00 0.00 0.00 0.00 0.00 0.00 0.00 0.00 0.00 0.00 0.00 0.00 0.00 0.00 0.00 0.01 0.01 0.01 0.00 0.00 0.00 0.00 0.00 0.01 0.01 0.01 0.01 0.02 0.02 0.03 0.03 0.04 0.04 0.04 0.04 0.04 0.04 0.04 0.04 0.04 0.03 0.02 0.02
0.00 0.00 0.00 0.00 0.01 0.01 0.01 0.01 0.01 0.01 0.01 0.00 0.00 0.00 0.01 0.02 0.02 0.05 0.01 0.01 0.01 0.01 0.00 0.00 0.01 0.01 0.01 0.01 0.01 0.02 0.04 0.04 0.03 0.03 0.03 0.03 0.04 0.04 0.05 0.04 0.03 0.02 0.01 0.01
0.01 0.01 0.00 0.00 0.01 0.01 0.01 0.01 0.01 0.01 0.01 0.01 0.00 0.01 0.05 0.08 0.04 0.03 0.01 0.01 0.01 0.00 0.01 0.00 0.01 0.01 0.01 0.01 0.02 0.03 0.03 0.03 0.03 0.03 0.05 0.05 0.05 0.05 0.04 0.03 0.02 0.02 0.01 0.01
0.01 0.01 0.00 0.01 0.02 0.01 0.01 0.01 0.01 0.01 0.01 0.01 0.01 0.03 0.07 0.05 0.02 0.01 0.01 0.01 0.01 0.01 0.01 0.01 0.01 0.01 0.01 0.01 0.02 0.03 0.03 0.03 0.03 0.05 0.05 0.05 0.05 0.05 0.04 0.03 0.02 0.01 0.01 0.02
0.01 0.01 0.01 0.01 0.02 0.01 0.01 0.01 0.02 0.02 0.02 0.01 0.01 0.04 0.05 0.03 0.02 0.02 0.01 0.01 0.01 0.01 0.02 0.02 0.02 0.02 0.01 0.01 0.02 0.02 0.03 0.04 0.04 0.05 0.04 0.03 0.03 0.03 0.02 0.02 0.02 0.02 0.02 0.03
0.01 0.01 0.01 0.01 0.02 0.02 0.02 0.01 0.02 0.02 0.01 0.01 0.02 0.06 0.05 0.02 0.01 0.01 0.02 0.01 0.01 0.01 0.01 0.02 0.02 0.02 0.01 0.01 0.02 0.02 0.02 0.02 0.03 0.03 0.04 0.03 0.03 0.02 0.02 0.01 0.01 0.02 0.03 0.04
0.01 0.01 0.01 0.01 0.01 0.02 0.02 0.02 0.03 0.02 0.02 0.02 0.02 0.05 0.04 0.02 0.03 0.03 0.02 0.02 0.01 0.01 0.01 0.02 0.01 0.01 0.02 0.02 0.02 0.03 0.04 0.03 0.02 0.02 0.02 0.02 0.03 0.03 0.02 0.02 0.02 0.02 0.04 0.05
0.01 0.01 0.01 0.01 0.02 0.02 0.02 0.02 0.02 0.03 0.03 0.02 0.03 0.06 0.05 0.04 0.06 0.05 0.02 0.01 0.01 0.01 0.02 0.02 0.02 0.03 0.04 0.04 0.04 0.07 0.07 0.03 0.01 0.03 0.03 0.03 0.03 0.03 0.03 0.02 0.02 0.02 0.03 0.03
0.02 0.01 0.01 0.02 0.02 0.02 0.01 0.02 0.02 0.02 0.03 0.03 0.04 0.07 0.06 0.05 0.07 0.07 0.04 0.01 0.01 0.01 0.01 0.02 0.03 0.04 0.03 0.04 0.06 0.07 0.05 0.02 0.02 0.03 0.04 0.04 0.03 0.03 0.03 0.02 0.02 0.02 0.02 0.02
0.03 0.02 0.01 0.02 0.02 0.01 0.02 0.02 0.02 0.02 0.02 0.02 0.03 0.04 0.04 0.03 0.04 0.07 0.03 0.01 0.01 0.01 0.01 0.02 0.02 0.02 0.02 0.03 0.04 0.04 0.03 0.02 0.02 0.03 0.03 0.03 0.04 0.04 0.03 0.03 0.03 0.03 0.03 0.03
0.03 0.03 0.02 0.02 0.02 0.01 0.02 0.02 0.02 0.01 0.01 0.02 0.03 0.03 0.02 0.02 0.02 0.02 0.02 0.01 0.01 0.01 0.02 0.02 0.02 0.02 0.02 0.02 0.02 0.02 0.02 0.03 0.03 0.03 0.03 0.04 0.04 0.05 0.03 0.03 0.03 0.03 0.03 0.04
0.02 0.02 0.03 0.03 0.02 0.02 0.03 0.03 0.03 0.02 0.02 0.02 0.02 0.02 0.02 0.01 0.01 0.01 0.02 0.02 0.02 0.02 0.02 0.02 0.02 0.02 0.02 0.02 0.02 0.02 0.02 0.03 0.03 0.03 0.04 0.06 0.06 0.04 0.04 0.03 0.03 0.03 0.04 0.04
0.02 0.01 0.02 0.03 0.03 0.04 0.03 0.02 0.02 0.02 0.02 0.02 0.01 0.01 0.01 0.01 0.01 0.02 0.03 0.02 0.02 0.02 0.02 0.02 0.01 0.02 0.02 0.02 0.02 0.01 0.01 0.02 0.02 0.03 0.03 0.03 0.04 0.04 0.04 0.03 0.03 0.03 0.04 0.03
0.01 0.01 0.02 0.03 0.03 0.03 0.02 0.02 0.02 0.01 0.02 0.02 0.01 0.01 0.01 0.01 0.01 0.02 0.03 0.03 0.02 0.02 0.02 0.02 0.02 0.02 0.03 0.03 0.02 0.02 0.02 0.02 0.02 0.02 0.03 0.02 0.02 0.03 0.03 0.03 0.04 0.05 0.05 0.04
0.01 0.02 0.03 0.03 0.04 0.03 0.03 0.02 0.02 0.01 0.02 0.02 0.02 0.02 0.01 0.01 0.02 0.02 0.03 0.04 0.04 0.04 0.02 0.03 0.02 0.02 0.02 0.03 0.02 0.02 0.02 0.03 0.04 0.05 0.04 0.03 0.03 0.03 0.02 0.02 0.02 0.03 0.05 0.05
0.02 0.03 0.03 0.03 0.03 0.03 0.03 0.02 0.02 0.04 0.04 0.02 0.02 0.01 0.01 0.02 0.02 0.02 0.03 0.04 0.05 0.05 0.05 0.04 0.04 0.03 0.04 0.04 0.04 0.03 0.02 0.02 0.02 0.03 0.05 0.06 0.04 0.04 0.03 0.02 0.02 0.03 0.04 0.04
0.03 0.03 0.03 0.02 0.03 0.04 0.03 0.03 0.04 0.04 0.03 0.02 0.01 0.01 0.01 0.01 0.01 0.00 0.01 0.02 0.03 0.03 0.03 0.03 0.03 0.03 0.04 0.04 0.05 0.04 0.03 0.03 0.01 0.01 0.02 0.04 0.06 0.03 0.03 0.02 0.02 0.03 0.03 0.03
0.05 0.05 0.04 0.04 0.05 0.05 0.04 0.02 0.02 0.01 0.01 0.01 0.01 0.01 0.01 0.01 0.00 0.00 0.00 0.01 0.01 0.02 0.01 0.01 0.01 0.02 0.02 0.03 0.04 0.05 0.05 0.04 0.03 0.02 0.01 0.01 0.03 0.03 0.03 0.03 0.03 0.02 0.02 0.02
0.06 0.05 0.05 0.04 0.04 0.03 0.02 0.01 0.01 0.01 0.01 0.01 0.01 0.01 0.00 0.01 0.01 0.01 0.01 0.01 0.01 0.01 0.01 0.01 0.01 0.02 0.03 0.03 0.03 0.03 0.04 0.05 0.05 0.03 0.02 0.01 0.01 0.02 0.03 0.04 0.04 0.03 0.02 0.02
0.05 0.06 0.06 0.06 0.05 0.04 0.02 0.01 0.01 0.01 0.01 0.01 0.00 0.00 0.01 0.01 0.02 0.02 0.02 0.01 0.01 0.01 0.02 0.02 0.03 0.03 0.04 0.03 0.02 0.02 0.03 0.03 0.04 0.03 0.02 0.01 0.01 0.01 0.02 0.02 0.03 0.03 0.02 0.02
0.04 0.05 0.06 0.10 0.09 0.06 0.03 0.02 0.01 0.01 0.01 0.01 0.01 0.01 0.01 0.02 0.02 0.03 0.02 0.02 0.01 0.02 0.02 0.02 0.03 0.04 0.03 0.02 0.01 0.01 0.01 0.01 0.02 0.02 0.02 0.01 0.01 0.01 0.02 0.02 0.02 0.02 0.02 0.02
MSLP
1010.67 1011.12 1011.40 1011.49 1011.41 1011.19 1010.89 1010.57 1010.26 1010.00 1009.82 1009.71 1009.67 1009.71 1009.81 1009.96 1010.15 1010.38 1010.64 1010.92 1011.22 1011.53 1011.85 1012.20 1012.56 1012.95 1013.36 1013.80 1014.26 1014.71 1015.13 1015.51 1015.82 1016.07 1016.26 1016.39 1016.49 1016.58 1016.69 1016.80 1016.94 1017.10 1017.25 1017.40
1010.86 1011.20 1011.38 1011.39 1011.27 1011.06 1010.81 1010.55 1010.32 1010.13 1009.98 1009.88 1009.80 1009.76 1009.75 1009.77 1009.83 1009.95 1010.13 1010.36 1010.64 1010.97 1011.32 1011.70 1012.10 1012.51 1012.95 1013.40 1013.88 1014.35 1014.82 1015.25 1015.64 1015.96 1016.21 1016.40 1016.54 1016.64 1016.72 1016.81 1016.91 1017.04 1017.18 1017.33
1010.83 1011.04 1011.12 1011.08 1010.95 1010.79 1010.63 1010.49 1010.38 1010.30 1010.22 1010.13 1010.01 1009.88 1009.73 1009.59 1009.50 1009.48 1009.54 1009.70 1009.95 1010.27 1010.65 1011.06 1011.50 1011.95 1012.42 1012.90 1013.40 1013.91 1014.42 1014.91 1015.37 1015.76 1016.09 1016.34 1016.51 1016.63 1016.72 1016.79 1016.88 1016.98 1017.11 1017.28
1010.58 1010.67 1010.66 1010.59 1010.50 1010.43 1010.40 1010.43 1010.49 1010.54 1010.55 1010.49 1010.34 1010.10 1009.80 1009.48 1009.20 1009.00 1008.92 1008.98 1009.16 1009.47 1009.86 1010.31 1010.78 1011.28 1011.78 1012.30 1012.83 1013.37 1013.92 1014.47 1014.99 1015.46 1015.86 1016.17 1016.40 1016.56 1016.66 1016.74 1016.82 1016.92 1017.05 1017.23
1010.18 1010.16 1010.08 1010.01 1009.98 1010.04 1010.19 1010.42 1010.66 1010.87 1010.99 1010.95 1010.76 1010.41 1009.94 1009.43 1008.94 1008.54 1008.30 1008.23 1008.34 1008.60 1008.99 1009.47 1009.98 1010.51 1011.05 1011.60 1012.16 1012.73 1013.32 1013.92 1014.49 1015.03 1015.49 1015.88 1016.17 1016.37 1016.51 1016.61 1016.70 1016.81 1016.96 1017.16
1009.69 1009.58 1009.47 1009.43 1009.50 1009.71 1010.05 1010.47 1010.91 1011.27 1011.47 1011.47 1011.23 1010.77 1010.14 1009.42 1008.71 1008.11 1007.69 1007.48 1007.49 1007.70 1008.08 1008.56 1009.10 1009.67 1010.24 1010.81 1011.40 1012.00 1012.61 1013.24 1013.86 1014.45 1014.98 1015.43 1015.78 1016.04 1016.23 1016.36 1016.48 1016.62 1016.79 1017.00
1009.19 1009.03 1008.92 1008.94 1009.11 1009.47 1009.97 1010.57 1011.16 1011.65 1011.93 1011.94 1011.65 1011.08 1010.29 1009.39 1008.49 1007.69 1007.09 1006.74 1006.65 1006.79 1007.13 1007.61 1008.16 1008.74 1009.33 1009.93 1010.53 1011.14 1011.78 1012.43 1013.09 1013.72 1014.31 1014.82 1015.23 1015.55 1015.79 1015.97 1016.13 1016.29 1016.48 1016.70
1008.75 1008.58 1008.50 1008.57 1008.83 1009.30 1009.93 1010.66 1011.36 1011.92 1012.24 1012.24 1011.90 1011.24 1010.33 1009.27 1008.20 1007.24 1006.49 1006.01 1005.81 1005.88 1006.17 1006.62 1007.16 1007.74 1008.34 1008.94 1009.55 1010.17 1010.82 1011.49 1012.18 1012.85 1013.48 1014.05 1014.53 1014.91 1015.20 1015.43 1015.62 1015.80 1016.01 1016.25
1008.41 1008.26 1008.21 1008.33 1008.65 1009.18 1009.88 1010.65 1011.39 1011.98 1012.30 1012.28 1011.89 1011.16 1010.16 1009.00 1007.82 1006.75 1005.88 1005.29 1004.99 1004.98 1005.21 1005.61 1006.12 1006.68 1007.27 1007.86 1008.47 1009.10 1009.76 1010.45 1011.16 1011.87 1012.54 1013.16 1013.69 1014.13 1014.48 1014.75 1014.97 1015.18 1015.40 1015.65
1008.21 1008.09 1008.07 1008.20 1008.54 1009.06 1009.74 1010.48 1011.19 1011.74 1012.02 1011.97 1011.55 1010.79 1009.76 1008.56 1007.33 1006.20 1005.27 1004.60 1004.22 1004.12 1004.27 1004.61 1005.06 1005.58 1006.14 1006.72 1007.32 1007.95 1008.62 1009.33 1010.07 1010.81 1011.54 1012.20 1012.79 1013.29 1013.68 1013.99 1014.25 1014.48 1014.71 1014.96
1008.12 1008.03 1008.03 1008.15 1008.44 1008.89 1009.47 1010.12 1010.72 1011.18 1011.40 1011.31 1010.88 1010.14 1009.13 1007.97 1006.76 1005.63 1004.68 1003.97 1003.53 1003.35 1003.41 1003.66 1004.03 1004.49 1005.00 1005.54 1006.13 1006.76 1007.45 1008.18 1008.95 1009.74 1010.51 1011.24 1011.88 1012.42 1012.87 1013.22 1013.51 1013.76 1014.00 1014.25
1008.14 1008.07 1008.06 1008.13 1008.33 1008.66 1009.09 1009.58 1010.03 1010.37 1010.52 1010.40 1009.99 1009.30 1008.38 1007.30 1006.18 1005.11 1004.18 1003.45 1002.96 1002.70 1002.66 1002.80 1003.08 1003.45 1003.90 1004.40 1004.97 1005.60 1006.30 1007.06 1007.87 1008.70 1009.52 1010.30 1010.99 1011.59 1012.08 1012.47 1012.79 1013.07 1013.32 1013.58
1008.23 1008.17 1008.13 1008.13 1008.20 1008.38 1008.63 1008.93 1009.23 1009.44 1009.51 1009.37 1009.00 1008.40 1007.60 1006.66 1005.66 1004.69 1003.81 1003.09 1002.55 1002.22 1002.07 1002.10 1002.26 1002.53 1002.90 1003.35 1003.89 1004.51 1005.22 1006.01 1006.85 1007.72 1008.58 1009.40 1010.14 1010.78 1011.32 1011.76 1012.11 1012.42 1012.69 1012.96
1008.37 1008.32 1008.23 1008.14 1008.09 1008.10 1008.18 1008.30 1008.44 1008.53 1008.54 1008.40 1008.09 1007.60 1006.95 1006.16 1005.30 1004.43 1003.62 1002.91 1002.34 1001.93 1001.67 1001.57 1001.61 1001.77 1002.05 1002.44 1002.93 1003.53 1004.24 1005.03 1005.89 1006.78 1007.67 1008.52 1009.30 1009.98 1010.56 1011.04 1011.44 1011.77 1012.08 1012.37
1008.56 1008.48 1008.35 1008.19 1008.04 1007.91 1007.83 1007.80 1007.81 1007.81 1007.77 1007.65 1007.41 1007.03 1006.51 1005.87 1005.14 1004.38 1003.63 1002.93 1002.31 1001.82 1001.46 1001.24 1001.15 1001.20 1001.38 1001.69 1002.13 1002.69 1003.37 1004.15 1005.00 1005.89 1006.78 1007.64 1008.44 1009.15 1009.76 1010.28 1010.71 1011.09 1011.42 1011.74
1008.76 1008.67 1008.51 1008.29 1008.06 1007.85 1007.67 1007.54 1007.46 1007.40 1007.34 1007.24 1007.06 1006.77 1006.36 1005.83 1005.21 1004.52 1003.80 1003.10 1002.44 1001.87 1001.41 1001.07 1000.87 1000.81 1000.90 1001.12 1001.49 1002.00 1002.63 1003.36 1004.17 1005.03 1005.89 1006.73 1007.52 1008.24 1008.87 1009.42 1009.89 1010.30 1010.67 1011.02
1008.95 1008.85 1008.68 1008.45 1008.19 1007.94 1007.72 1007.55 1007.44 1007.36 1007.30 1007.21 1007.07 1006.84 1006.50 1006.04 1005.47 1004.81 1004.10 1003.38 1002.67 1002.03 1001.48 1001.05 1000.76 1000.60 1000.60 1000.75 1001.04 1001.47 1002.02 1002.68 1003.41 1004.19 1004.99 1005.78 1006.54 1007.24 1007.88 1008.45 1008.95 1009.40 1009.81 1010.19
1009.10 1009.00 1008.84 1008.64 1008.41 1008.19 1008.00 1007.85 1007.75 1007.68 1007.62 1007.55 1007.42 1007.20 1006.87 1006.42 1005.86 1005.19 1004.47 1003.71 1002.96 1002.27 1001.65 1001.16 1000.80 1000.57 1000.50 1000.57 1000.78 1001.12 1001.58 1002.13 1002.75 1003.43 1004.13 1004.85 1005.54 1006.21 1006.84 1007.41 1007.94 1008.42 1008.87 1009.28
1009.18 1009.08 1008.96 1008.83 1008.68 1008.54 1008.43 1008.35 1008.30 1008.27 1008.23 1008.15 1008.01 1007.77 1007.41 1006.92 1006.31 1005.61 1004.84 1004.05 1003.27 1002.54 1001.90 1001.38 1000.98 1000.72 1000.60 1000.61 1000.75 1000.99 1001.34 1001.76 1002.26 1002.81 1003.40 1004.01 1004.63 1005.24 1005.84 1006.41 1006.96 1007.47 1007.94 1008.38
1009.16 1009.09 1009.02 1008.97 1008.93 1008.92 1008.92 1008.95 1008.98 1009.00 1008.99 1008.90 1008.72 1008.43 1008.01 1007.45 1006.78 1006.02 1005.22 1004.39 1003.60 1002.87 1002.24 1001.73 1001.34 1001.08 1000.94 1000.91 1000.97 1001.13 1001.36 1001.66 1002.02 1002.43 1002.89 1003.39 1003.91 1004.47 1005.03 1005.59 1006.14 1006.66 1007.17 1007.63
1009.05 1009.00 1009.00 1009.05 1009.14 1009.26 1009.40 1009.55 1009.68 1009.76 1009.77 1009.68 1009.46 1009.10 1008.61 1007.98 1007.24 1006.44 1005.60 1004.77 1004.00 1003.31 1002.72 1002.25 1001.91 1001.67 1001.54 1001.49 1001.51 1001.58 1001.71 1001.88 1002.11 1002.38 1002.71 1003.09 1003.52 1004.00 1004.52 1005.06 1005.61 1006.14 1006.66 1007.15
1008.87 1008.84 1008.91 1009.05 1009.27 1009.52 1009.80 1010.07 1010.30 1010.45 1010.48 1010.38 1010.13 1009.72 1009.16 1008.47 1007.69 1006.86 1006.03 1005.23 1004.51 1003.89 1003.38 1003.00 1002.72 1002.54 1002.43 1002.38 1002.36 1002.37 1002.41 1002.47 1002.57 1002.71 1002.92 1003.19 1003.54 1003.94 1004.41 1004.92 1005.45 1005.98 1006.51 1007.00
1008.67 1008.67 1008.79 1009.02 1009.34 1009.71 1010.11 1010.48 1010.79 1010.99 1011.06 1010.96 1010.69 1010.25 1009.66 1008.95 1008.16 1007.35 1006.55 1005.82 1005.18 1004.66 1004.26 1003.98 1003.79 1003.68 1003.61 1003.56 1003.52 1003.48 1003.44 1003.40 1003.40 1003.43 1003.53 1003.70 1003.96 1004.30 1004.71 1005.18 1005.68 1006.20 1006.71 1007.19
1008.52 1008.55 1008.72 1009.01 1009.40 1009.85 1010.33 1010.78 1011.15 1011.39 1011.48 1011.40 1011.13 1010.69 1010.10 1009.41 1008.66 1007.90 1007.19 1006.56 1006.04 1005.64 1005.36 1005.18 1005.09 1005.04 1005.01 1004.98 1004.92 1004.84 1004.73 1004.62 1004.52 1004.46 1004.47 1004.55 1004.73 1004.99 1005.35 1005.77 1006.23 1006.72 1007.20 1007.66
1008.52 1008.57 1008.76 1009.08 1009.51 1010.00 1010.52 1010.99 1011.39 1011.66 1011.76 1011.69 1011.44 1011.03 1010.49 1009.86 1009.19 1008.53 1007.93 1007.43 1007.04 1006.76 1006.60 1006.53 1006.52 1006.53 1006.53 1006.51 1006.44 1006.32 1006.16 1005.98 1005.81 1005.67 1005.60 1005.61 1005.71 1005.91 1006.20 1006.56 1006.96 1007.40 1007.83 1008.25
1008.70 1008.78 1008.99 1009.31 1009.74 1010.22 1010.71 1011.18 1011.56 1011.82 1011.93 1011.87 1011.66 1011.30 1010.83 1010.29 1009.73 1009.20 1008.73 1008.36 1008.10 1007.95 1007.89 1007.90 1007.95 1008.00 1008.03 1008.00 1007.91 1007.75 1007.55 1007.32 1007.09 1006.90 1006.76 1006.70 1006.74 1006.86 1007.08 1007.37 1007.72 1008.08 1008.46 1008.82
Thickness
5751 5745 5746 5755 5760 5762 5761 5759 5759 5768 5779 5770 5768 5772 5781 5786 5784 5783 5783 5783 5781 5781 5783 5782 5780 5778 5774 5770 5765 5761 5756 5752 5748 5745 5741 5738 5735 5733 5731 5729 5726 5725 5724 5722
5739 5740 5756 5762 5760 5756 5753 5751 5757 5766 5773 5766 5766 5770 5780 5782 5780 5781 5780 5779 5779 5779 5778 5777 5775 5774 5771 5767 5762 5758 5754 5750 5746 5743 5740 5737 5734 5731 5729 5727 5723 5722 5720 5718
5739 5754 5760 5752 5749 5746 5750 5750 5754 5755 5763 5766 5760 5762 5771 5777 5779 5778 5779 5779 5779 5777 5774 5773 5772 5770 5769 5764 5760 5757 5752 5748 5744 5740 5737 5734 5730 5728 5726 5722 5720 5719 5717 5715
5743 5755 5750 5745 5746 5748 5743 5758 5755 5752 5749 5755 5757 5748 5764 5770 5769 5770 5773 5775 5776 5775 5774 5773 5771 5768 5766 5763 5759 5754 5749 5744 5740 5737 5735 5731 5727 5724 5723 5721 5719 5716 5714 5712
5741 5748 5744 5741 5749 5751 5751 5760 5754 5751 5748 5747 5755 5749 5761 5767 5760 5764 5769 5771 5772 5773 5773 5770 5769 5767 5764 5761 5757 5751 5746 5741 5737 5735 5732 5728 5726 5723 5721 5718 5715 5712 5712 5710
5745 5754 5751 5749 5754 5754 5754 5749 5747 5748 5746 5732 5748 5745 5750 5763 5761 5762 5765 5766 5767 5769 5769 5767 5766 5763 5759 5757 5752 5748 5742 5737 5733 5731 5729 5725 5722 5719 5716 5713 5710 5709 5709 5708
5732 5742 5750 5752 5742 5745 5742 5731 5724 5724 5727 5734 5750 5742 5747 5762 5764 5761 5761 5761 5762 5763 5763 5762 5759 5756 5753 5750 5748 5744 5738 5733 5730 5727 5725 5722 5719 5716 5712 5711 5709 5707 5707 5705
5721 5726 5741 5744 5740 5736 5735 5732 5720 5715 5723 5738 5743 5738 5750 5761 5762 5761 5761 5760 5757 5757 5757 5755 5753 5750 5748 5745 5742 5740 5735 5730 5727 5724 5721 5719 5716 5714 5712 5709 5708 5706 5705 5704
5721 5724 5743 5744 5744 5740 5730 5731 5742 5732 5732 5729 5738 5742 5748 5754 5753 5754 5754 5753 5750 5750 5749 5748 5747 5745 5743 5740 5737 5734 5730 5726 5723 5720 5717 5714 5712 5710 5708 5706 5705 5704 5702 5702
5724 5714 5732 5738 5739 5738 5740 5738 5728 5723 5712 5712 5726 5733 5735 5741 5742 5745 5746 5746 5745 5744 5743 5742 5741 5739 5737 5735 5732 5729 5725 5723 5720 5717 5714 5712 5709 5707 5705 5704 5702 5701 5700 5699
5720 5709 5719 5726 5722 5726 5725 5726 5726 5728 5728 5715 5712 5725 5742 5738 5739 5739 5740 5742 5741 5739 5737 5736 5734 5733 5732 5730 5727 5723 5720 5718 5715 5713 5710 5708 5706 5704 5702 5701 5700 5699 5698 5696
5713 5710 5709 5720 5733 5736 5730 5727 5723 5712 5716 5722 5719 5720 5739 5737 5737 5735 5735 5736 5735 5732 5731 5730 5728 5727 5724 5722 5720 5716 5714 5713 5711 5709 5707 5705 5703 5701 5699 5698 5697 5696 5694 5694
5703 5697 5694 5704 5713 5720 5719 5722 5722 5720 5718 5715 5710 5714 5731 5730 5730 5730 5729 5728 5727 5725 5723 5722 5719 5717 5716 5714 5712 5710 5708 5707 5706 5705 5703 5700 5699 5697 5696 5694 5694 5693 5692 5691
5698 5694 5694 5695 5707 5713 5709 5713 5718 5716 5710 5709 5712 5714 5719 5720 5721 5722 5721 5721 5720 5717 5715 5713 5710 5709 5708 5706 5705 5704 5703 5702 5701 5699 5698 5695 5694 5693 5692 5691 5690 5689 5689 5687
5689 5687 5694 5698 5704 5706 5705 5707 5710 5708 5710 5708 5709 5711 5711 5713 5713 5714 5714 5713 5712 5710 5708 5706 5704 5702 5701 5699 5698 5697 5696 5696 5695 5693 5692 5690 5689 5689 5688 5687 5686 5685 5684 5684
5679 5678 5684 5685 5694 5695 5693 5699 5703 5703 5705 5704 5704 5702 5709 5709 5708 5706 5706 5705 5702 5702 5701 5701 5699 5697 5695 5694 5693 5692 5691 5690 5690 5688 5686 5685 5684 5683 5682 5682 5681 5680 5680 5679
5671 5669 5671 5677 5688 5686 5679 5690 5695 5695 5696 5698 5694 5696 5700 5697 5695 5695 5697 5697 5696 5696 5695 5694 5693 5692 5691 5690 5689 5687 5686 5686 5684 5683 5682 5681 5679 5678 5678 5678 5676 5676 5675 5674
5660 5662 5667 5670 5669 5657 5677 5696 5695 5689 5688 5692 5691 5692 5691 5690 5690 5691 5691 5690 5689 5690 5690 5689 5688 5687 5686 5684 5683 5682 5682 5680 5679 5678 5678 5677 5675 5674 5673 5672 5671 5671 5670 5669
5658 5655 5658 5661 5658 5661 5673 5682 5683 5679 5675 5682 5683 5683 5685 5686 5685 5684 5685 5685 5683 5684 5684 5683 5684 5683 5680 5679 5678 5677 5676 5674 5673 5673 5673 5673 5672 5670 5668 5667 5667 5666 5666 5665
5651 5650 5650 5652 5649 5647 5660 5673 5679 5675 5664 5675 5676 5675 5676 5677 5675 5675 5677 5677 5677 5677 5678 5677 5677 5676 5673 5672 5672 5670 5669 5668 5667 5667 5667 5668 5667 5665 5664 5663 5662 5662 5661 5660
5636 5636 5638 5642 5642 5648 5656 5665 5669 5654 5656 5666 5669 5670 5670 5669 5670 5669 5669 5669 5669 5670 5670 5670 5669 5668 5666 5666 5666 5664 5663 5662 5663 5663 5662 5661 5661 5661 5660 5659 5658 5657 5657 5656
5629 5631 5631 5636 5633 5635 5648 5652 5648 5648 5655 5659 5661 5663 5663 5662 5663 5662 5662 5662 5662 5662 5663 5664 5662 5660 5660 5660 5659 5658 5657 5657 5657 5657 5656 5655 5654 5656 5656 5654 5653 5653 5652 5652
5621 5623 5628 5630 5629 5633 5639 5640 5642 5646 5647 5650 5653 5655 5656 5655 5656 5656 5655 5655 5655 5655 5656 5656 5655 5654 5653 5653 5654 5652 5651 5651 5651 5650 5650 5649 5648 5648 5648 5648 5648 5648 5648 5649
5612 5613 5616 5619 5624 5627 5631 5634 5636 5639 5640 5644 5647 5649 5650 5648 5649 5649 5648 5648 5647 5648 5648 5648 5648 5647 5646 5647 5648 5647 5646 5646 5644 5642 5642 5642 5642 5642 5642 5641 5643 5643 5643 5643
5602 5604 5605 5608 5614 5618 5622 5624 5627 5631 5635 5637 5640 5642 5642 5642 5641 5640 5640 5640 5640 5640 5641 5641 5641 5640 5641 5641 5641 5641 5640 5640 5638 5637 5637 5637 5638 5638 5636 5635 5635 5636 5635 5635
5595 5594 5595 5599 5604 5605 5610 5615 5619 5622 5625 5630 5632 5633 5635 5635 5633 5633 5632 5633 5633 5633 5634 5634 5634 5634 5634 5635 5634 5635 5634 5633 5632 5631 5631 5632 5633 5633 5632 5631 5630 5626 5626 5624